User: anonymous   Login
Location: Blanot
(47.1713°N, 4.2340°E)
Time: 01:53:04
(UTC+00:00)
Language:

Iridium 4 Rocket - Orbit

View from above orbital plane
View from above orbital plane
View from above satellite
View from above satellite

Ground track
Ground track

The orbit data is extracted from the following two-line orbital elements,

1 24797U 97020F   20272.45423444 +.00000154 +00000-0 +28411-4 0  9990
2 24797 086.8900 274.0808 0222738 278.3094 191.2673 14.44189697230982
Epoch (UTC): 28 September 2020 10:54:05
Eccentricity: 0.0222738
inclination: 86.8900°
perigee height: 586 km
apogee height: 903 km
right ascension of ascending node: 274.0808°
argument of perigee: 278.3094°
revolutions per day: 14.44189697
mean anomaly at epoch: 191.2673°
orbit number at epoch: 23098

The dashed part of the orbit path shows where the satellite is in the earth's shadow,  

DLR